DW8306 Weather Reports


time (UTC)temp
F
wind
direction
speed
knots
gust
knots
rain 1hr
in
rain 24hr
in
rain mn
in
humidity
%
barometer
mb
20260901054525 80 319 0.0 0.0 0.00 0.00 0.00 80 1015.1
20260901053024 80 319 0.0 0.0 0.00 0.00 0.00 80 1014.9
20260901051520 80 113 0.0 0.0 0.00 0.00 0.00 80 1014.8
20260901050017 80 113 0.0 0.0 0.00 0.00 0.00 82 1014.6
20260901044516 80 113 0.0 0.0 0.00 0.00 0.00 81 1014.7
20260901043016 80 113 0.0 0.0 0.00 0.00 0.00 82 1014.7
20260901041516 80 113 0.0 0.0 0.00 0.00 0.00 81 1014.6
20260901040011 81 113 0.0 0.0 0.00 0.00 0.00 79 1014.7
20260901034512 82 113 0.0 0.0 0.00 0.00 0.00 78 1014.6
20260901033013 82 113 0.0 0.0 0.00 0.00 0.00 77 1014.5
20260901031512 83 113 0.0 0.0 0.00 0.00 0.00 76 1014.6
20260901030013 83 113 0.0 0.0 0.00 0.00 0.00 76 1014.5
20260901024507 84 113 0.0 0.0 0.00 0.00 0.00 75 1014.5
20260901023008 84 113 0.0 0.0 0.00 0.00 0.00 74 1014.2
20260901021506 84 113 0.0 0.0 0.00 0.00 0.00 73 1014.2
20260901020006 85 113 0.0 0.0 0.00 0.00 0.00 70 1014.0
20260901014504 86 113 0.0 0.0 0.00 0.00 0.00 70 1014.0
20260901013005 87 113 0.0 0.0 0.00 0.00 0.00 68 1013.9
20260901011503 87 108 0.0 0.0 0.00 0.00 0.00 66 1013.7
20260901010003 88 108 0.0 0.0 0.00 0.00 0.00 65 1013.6
20260901004502 89 108 0.0 0.0 0.00 0.00 0.00 63 1013.6
20260901003001 91 97 0.0 0.0 0.00 0.00 0.00 60 1013.7
20260901001503 92 66 0.0 0.0 0.00 0.00 0.00 57 1013.6
20260901000100 94 98 0.0 0.0 0.00 0.00 0.00 54 1013.6
20260831234604 95 115 0.0 0.0 0.00 0.00 0.00 53 1013.7
20260831233101 96 53 0.0 0.0 0.00 0.00 0.00 53 1013.7
20260831231559 96 87 0.0 0.0 0.00 0.00 0.00 51 1013.6
20260831230104 97 192 0.0 0.0 0.00 0.00 0.00 52 1013.6
20260831224557 97 104 0.0 0.0 0.00 0.00 0.00 51 1013.8
20260831223056 98 277 0.0 0.0 0.00 0.00 0.00 51 1013.9
20260831221601 98 71 0.0 0.0 0.00 0.00 0.00 53 1013.9
20260831220119 98 110 0.0 0.0 0.00 0.00 0.00 50 1013.8
20260831214553 98 116 0.0 0.0 0.00 0.00 0.00 51 1013.9
20260831213051 99 114 0.0 0.0 0.00 0.00 0.00 52 1014.0
20260831211550 98 337 0.0 0.0 0.00 0.00 0.00 50 1014.2
20260831210046 98 100 0.0 0.9 0.00 0.00 0.00 49 1014.3
20260831204555 98 20 0.0 0.9 0.00 0.00 0.00 49 1014.4
20260831203056 99 82 0.0 8.7 0.00 0.00 0.00 48 1014.6
20260831201540 99 32 1.7 6.1 0.00 0.00 0.00 49 1014.7
20260831200041 98 288 0.0 5.2 0.00 0.00 0.00 49 1014.8
20260831194541 98 128 0.0 4.3 0.00 0.00 0.00 53 1015.0
20260831193036 97 167 0.0 7.0 0.00 0.00 0.00 51 1015.1
20260831191535 99 97 0.0 1.7 0.00 0.00 0.00 51 1015.3
20260831190050 96 215 0.0 7.0 0.00 0.00 0.00 55 1015.6
20260831184533 96 77 0.0 1.7 0.00 0.00 0.00 55 1015.8
20260831183029 97 238 0.0 1.7 0.00 0.00 0.00 57 1015.8
20260831181527 95 106 0.9 3.5 0.00 0.00 0.00 56 1016.2
20260831180026 95 89 1.7 5.2 0.00 0.00 0.00 55 1016.3
20260831174523 94 91 0.0 3.5 0.00 0.00 0.00 60 1016.6
20260831173019 94 345 1.7 4.3 0.00 0.00 0.00 56 1016.7
20260831171516 94 88 0.0 3.5 0.00 0.00 0.00 61 1017.0
20260831170017 94 85 0.0 4.3 0.00 0.00 0.00 59 1017.0
20260831164508 92 292 2.6 5.2 0.00 0.00 0.00 61 1017.2
20260831163007 92 328 1.7 6.1 0.00 0.00 0.00 59 1017.2
20260831161509 91 75 0.9 5.2 0.00 0.00 0.00 61 1017.4
20260831160003 91 10 0.9 5.2 0.00 0.00 0.00 63 1017.4
20260831154503 89 354 0.9 4.3 0.00 0.00 0.00 66 1017.4
20260831153129 89 99 0.9 2.6 0.00 0.00 0.00 68 1017.3
20260831151558 88 81 0.9 3.5 0.00 0.00 0.00 69 1017.2
20260831150053 87 80 0.0 0.0 0.00 0.00 0.00 71 1017.1
20260831144550 87 93 0.0 0.0 0.00 0.00 0.00 72 1017.0
20260831143052 86 66 0.0 0.0 0.00 0.00 0.00 74 1017.0
20260831141545 84 66 0.0 1.7 0.00 0.00 0.00 77 1016.9
20260831140039 83 66 0.0 0.9 0.00 0.00 0.00 78 1016.9
20260831134535 82 66 0.0 0.0 0.00 0.00 0.00 82 1016.8
20260831133033 80 66 0.0 0.0 0.00 0.00 0.00 84 1016.7
20260831131532 78 66 0.0 1.7 0.00 0.00 0.00 87 1016.6
20260831130029 77 54 0.0 0.0 0.00 0.00 0.00 90 1016.4
20260831124525 76 54 0.0 0.0 0.00 0.00 0.00 90 1016.2
20260831123039 75 54 0.0 0.0 0.00 0.00 0.00 91 1016.1
20260831121528 74 54 0.0 0.0 0.00 0.00 0.00 91 1015.8
20260831120033 74 54 0.0 1.7 0.00 0.00 0.00 90 1015.5
20260831114521 74 54 0.0 0.0 0.00 0.00 0.00 90 1015.3
20260831113022 74 54 0.0 0.0 0.00 0.00 0.00 89 1015.3
20260831111517 74 54 0.0 0.0 0.00 0.00 0.00 89 1015.2
20260831110014 74 54 0.0 0.0 0.00 0.00 0.00 88 1015.1
20260831104527 74 56 0.0 0.0 0.00 0.00 0.00 88 1014.9
20260831103011 74 56 0.0 0.0 0.00 0.00 0.00 88 1014.9
20260831101520 75 56 0.0 0.0 0.00 0.00 0.00 87 1014.9
20260831100022 75 56 0.0 0.0 0.00 0.00 0.00 87 1014.8
20260831094508 75 56 0.0 0.0 0.00 0.00 0.00 86 1014.9
20260831093007 75 56 0.0 0.0 0.00 0.00 0.00 86 1014.8
20260831091505 75 56 0.0 0.0 0.00 0.00 0.00 85 1014.6
20260831090004 75 56 0.0 0.0 0.00 0.00 0.00 84 1014.7
20260831084503 76 56 0.0 0.0 0.00 0.00 0.00 84 1014.6
20260831083002 76 56 0.0 0.0 0.00 0.00 0.00 83 1014.7
20260831081602 76 56 0.0 0.0 0.00 0.00 0.00 82 1014.7
20260831080053 77 56 0.0 0.0 0.00 0.00 0.00 82 1014.8
20260831074554 77 56 0.0 0.0 0.00 0.00 0.00 81 1014.8
20260831073046 77 56 0.0 0.0 0.00 0.00 0.00 80 1014.9
20260831071544 77 56 0.0 0.0 0.00 0.00 0.00 80 1014.9
20260831070106 78 56 0.0 0.0 0.00 0.00 0.00 79 1015.0
20260831064539 78 56 0.0 0.9 0.00 0.00 0.00 79 1014.9
20260831063037 78 56 0.0 0.0 0.00 0.00 0.00 78 1014.9
20260831061537 79 68 0.0 0.0 0.00 0.00 0.00 78 1014.8
20260831060044 79 75 0.0 0.0 0.00 0.00 0.00 78 1014.8